Regional Weather Roundup
Issued by NWS

Home | Current Version | Previous Version | Text Only | Print | Product List | Glossary Off
Versions: 1 2 3 4 5 6 7 8 9 10 11 12 13 14 15 16 17 18 19 20 21 22 23 24 25 26 27 28 29 30 31 32 33 34 35 36 37 38 39 40 41 42 43 44 45 46 47 48 49 50

000
ASUS43 KIND 242359
RWRIN

WEATHER ROUNDUP FOR INDIANA
NATIONAL WEATHER SERVICE INDIANAPOLIS IN
800 PM EDT THU JUL 24 2014

NOTE: "FAIR" INDICATES FEW OR NO CLOUDS BELOW 12,000 FEET WITH NO
SIGNIFICANT WEATHER AND/OR OBSTRUCTIONS TO VISIBILITY.

* - STATION DOES NOT REPORT WEATHER SUCH AS PRECIPITATION OR FOG.

+ - STATION NOT QUALITY CONTROLLED BY THE NATIONAL WEATHER SERVICE.
    USE DATA WITH CAUTION...ESPECIALLY DEWPOINT AND RELATIVE
    HUMIDITY OBSERVATIONS.

INZ001>003-010>013-019-020-250100-
NORTHWEST INDIANA

CITY           SKY/WX    TMP DP  RH WIND       PRES   REMARKS
GARY /AIRPORT/ MOSUNNY   68  50  52 NE7       30.10S
VALPARAISO     SUNNY     68  51  54 N5        30.09F
6HR MIN TEMP:  68; 6HR MAX TEMP:  74;


$$

LMZ046-743>745-250100-
SOUTHERN LAKE MICHIGAN

STATION/POSITION TIME  TEMP WIND        PRES
                       AIR  DIR/SP/G
                 (UTC) (F)  (DEG/KT/KT) (MB)
BURNS HARBOR     2300   66   30/  8/  9 1020.0S
MICHIGAN CITY    2300   66  350/  9/ 11   N/A

$$

INZ004-005-014>016-021>024-250100-
NORTH CENTRAL INDIANA

CITY           SKY/WX    TMP DP  RH WIND       PRES   REMARKS
ELKHART        SUNNY     72  54  53 N6        30.08
GOSHEN         CLOUDY    74  53  48 E5        30.07R
6HR MIN TEMP:  71; 6HR MAX TEMP:  76;

SOUTH BEND     SUNNY     69  51  52 NW8       30.09S
6HR MIN TEMP:  69; 6HR MAX TEMP:  77;


$$

INZ006>009-017-018-025>027-250100-
NORTHEAST INDIANA

CITY           SKY/WX    TMP DP  RH WIND       PRES   REMARKS
ANGOLA *+      SUNNY     73  52  46 CALM      30.07S
FORT WAYNE     PTSUNNY   72  53  51 S5        30.07R
6HR MIN TEMP:  70; 6HR MAX TEMP:  77;


$$

INZ028-029-035-036-043>045-051>053-250100-
WEST CENTRAL INDIANA

CITY           SKY/WX    TMP DP  RH WIND       PRES   REMARKS
GREENCASTLE +  SUNNY     72  54  53 NE6       30.08R
LAFAYETTE      MOSUNNY   73  51  46 VRB3      30.06S
6HR MIN TEMP:  72; 6HR MAX TEMP:  76;

TERRE HAUTE    SUNNY     74  56  53 NE8       30.06R
6HR MIN TEMP:  74; 6HR MAX TEMP:  79;


$$

INZ030>032-037>040-046>048-054>057-064-065-250100-
CENTRAL INDIANA

CITY           SKY/WX    TMP DP  RH WIND       PRES   REMARKS
COLUMBUS       MOSUNNY   72  54  53 N5        30.06R
INDIANAPOLIS   MOSUNNY   73  51  46 NE8       30.06R
6HR MIN TEMP:  72; 6HR MAX TEMP:  76;

-EAGLE CREEK   CLOUDY    74  49  41 NE7       30.06R
6HR MIN TEMP:  72; 6HR MAX TEMP:  76;

KOKOMO *+      SUNNY     73  54  49 N6        30.06S
MT COMFORT *+  MOSUNNY   70  57  64 NE3       30.07R
SHELBYVILLE    MOSUNNY   73  55  53 N3        30.06R
6HR MIN TEMP:  72; 6HR MAX TEMP:  78;


$$

INZ033-034-041-042-049-050-058-059-250100-
EAST CENTRAL INDIANA

CITY           SKY/WX    TMP DP  RH WIND       PRES   REMARKS
MUNCIE         SUNNY     72  50  45 NE7       30.07R
6HR MIN TEMP:  71; 6HR MAX TEMP:  76;


$$

INZ060-061-067>069-081>083-085>088-250100-
SOUTHWEST INDIANA

CITY           SKY/WX    TMP DP  RH WIND       PRES   REMARKS
EVANSVILLE     SUNNY     78  53  41 N7        30.04R
6HR MIN TEMP:  78; 6HR MAX TEMP:  82;

HUNTINGBURG *+ SUNNY     73  55  53 NE3       30.04R
6HR MIN TEMP:  73; 6HR MAX TEMP:  79;


$$

INZ062-063-066-070>080-084-089>092-250100-
SOUTH CENTRAL AND SOUTHEAST INDIANA

CITY           SKY/WX    TMP DP  RH WIND       PRES   REMARKS
BLOOMINGTON    MOSUNNY   69  57  65 NW3       30.06R
6HR MIN TEMP:  69; 6HR MAX TEMP:  78;

SEYMOUR +      MOSUNNY   70  36  28 NE7       30.04R

$$




USA.gov is the U.S. government's official web portal to all federal, state and local government web resources and services.